Location: Aulnoy
(48.8410°N, 3.0967°E)
Time: 23:22:26
(UTC+00:00)

Lacrosse 5 - Pass Details

Date: 09 February 2023
Orbit: 714 x 724 km, 57.0° (Epoch: 09 March)

Event Time Altitude Azimuth Distance (km) Brightness Sun altitude
Rises 20:00:13 0° 292° (WNW) 3,143 6.3 -30.3°
Reaches altitude 10° 20:02:49 10° 302° (WNW) 2,221 5.2 -30.7°
Enters shadow 20:06:18 30° 340° (NNW) 1,280 3.3 -31.2°
